SCP
0 0 0 0 0 0 0 0 0 0 0 0 0 0 0 0 0 0 0 0 0 0
0 0 0 0 0 0 0 0 0 0 0 0 0 0 0 0 0 0 0 0 0 0
0 0 0 0 0 0 0 0 0 0 0 0 0 0 0 0 0 0 0 0 0 0
0 0 0 0 0 0 0 0 0 0 0 0 0 0 0 0 0 0 0 0 0 0
0 0 0 0 0 0 0 0 0 0 0 0 0 0 0 0 0 0 0 0 0 0
0 0 0 0 0 0 0 0 0 0 0 0 0 0 0 0 0 0 0 0 -0 0
0 0 0 0 0 0 0 0 0 0 0 0 0 0 0 0 0 0 0 0 -0 0
0 0 0 0 0 0 0 0 0 0 0 0 0 0 0 0 0 0 0 0 -0 0
0 0 0 0 0 0 0 0 0 0 0 0 0 0 0 0 0 0 0 0 -0 -0
0 0 0 0 0 0 0 0 0 0 0 -0 0 0 0 -0 0 0 0 0 -0 -0
0 0 0 -0 -0 0 0 0 0 0 -0 -0 0 0 0 -0 -0 0 0 0 0 0
0 0 0 -0 -0 -0 0 0 0 0 -0 -0 -0 0 0 0 0 0 0 0 0 0
0 0 0 0 -0 -0 -0 0 0 0 0 0 0 0 0 0 0 0 0 0 0 0
0 0 0 0 -0 -0 -0 -0 0 0 0 0 0 0 0 0 0 0 0 0 0 0
Wind_Speed_500mb
50 49 46 44 45 47 53 56 57 57 58 58 57 57 57 57 55 52 52 53 54 57
44 40 40 39 41 48 51 57 59 60 58 53 53 51 52 52 51 49 50 52 52 53
34 34 37 41 42 45 52 58 58 59 59 53 49 48 49 52 49 48 48 47 48 51
29 34 39 43 44 48 47 55 57 58 56 51 50 49 49 50 49 49 47 42 42 46
28 32 34 39 43 43 45 51 58 56 57 55 52 53 53 52 50 51 47 42 37 37
27 29 33 36 38 38 42 48 58 56 57 57 55 56 53 52 52 48 43 40 34 34
27 30 33 37 38 38 35 37 48 56 50 51 52 54 54 56 57 57 51 46 38 30
31 36 39 36 39 33 31 33 35 42 46 42 47 51 53 53 54 56 60 66 58 43
35 42 36 37 40 38 28 25 31 35 40 42 43 43 43 48 55 55 59 62 59 64
38 35 40 47 47 37 21 26 29 26 36 40 36 40 40 43 44 50 56 59 60 57
28 36 46 53 52 30 27 27 27 18 30 39 33 33 38 40 42 38 44 50 53 54
25 28 39 51 58 44 25 24 21 20 35 37 41 29 30 36 37 30 36 39 45 47
23 32 34 42 52 56 36 21 25 30 33 31 31 28 25 33 36 32 37 35 37 42
26 29 32 36 40 50 51 39 31 29 27 26 29 30 24 25 32 28 33 36 39 39
Wind_Direction_500mb
337 337 339 345 350 350 350 351 347 340 337 336 332 330 327 323 322 319 313 308 302 299
341 347 355 359 358 2 1 355 349 345 340 339 339 337 335 332 329 325 321 318 313 307
359 7 9 6 10 6 1 359 356 352 350 348 346 347 346 340 336 329 328 327 325 322
24 24 22 18 11 6 7 4 2 2 359 357 356 355 353 351 346 339 334 331 332 337
26 20 17 16 14 15 11 8 9 9 7 7 7 7 3 357 358 354 349 343 337 339
24 19 16 11 9 8 11 17 15 13 13 13 18 19 17 19 17 11 5 -0 346 349
23 12 4 358 356 351 355 13 7 10 14 14 21 23 26 29 32 32 28 22 11 356
17 5 357 358 358 352 347 353 358 3 13 19 23 23 24 27 29 33 34 36 37 33
12 4 1 353 351 350 340 353 360 7 11 17 17 18 22 24 30 35 35 36 36 42
18 18 12 5 353 354 355 345 352 3 9 2 9 14 12 19 24 26 29 34 36 38
16 13 15 12 9 7 3 355 360 12 356 353 352 0 8 9 11 23 28 27 29 26
15 11 14 17 18 13 357 8 16 346 335 346 351 345 355 359 359 12 16 18 20 18
13 22 18 14 20 22 18 11 356 346 337 350 4 356 347 0 357 5 5 4 5 8
21 21 16 9 14 24 31 27 13 6 19 25 19 18 11 359 1 5 1 1 1 1
Wind_Speed_850mb
50 49 46 44 45 47 53 56 57 57 58 58 57 57 57 57 55 52 52 53 54 57
44 40 40 39 41 48 51 57 59 60 58 53 53 51 52 52 51 49 50 52 52 53
34 34 37 41 42 45 52 58 58 59 59 53 49 48 49 52 49 48 48 47 48 51
29 34 39 43 44 48 47 55 57 58 56 51 50 49 49 50 49 49 47 42 42 46
28 32 34 39 43 43 45 51 58 56 57 55 52 53 53 52 50 51 47 42 37 37
27 29 33 36 38 38 42 48 58 56 57 57 55 56 53 52 52 48 43 40 34 34
27 30 33 37 38 38 35 37 48 56 50 51 52 54 54 56 57 57 51 46 38 30
31 36 39 36 39 33 31 33 35 42 46 42 47 51 53 53 54 56 60 66 58 43
35 42 36 37 40 38 28 25 31 35 40 42 43 43 43 48 55 55 59 62 59 64
38 35 40 47 47 37 21 26 29 26 36 40 36 40 40 43 44 50 56 59 60 57
28 36 46 53 52 30 27 27 27 18 30 39 33 33 38 40 42 38 44 50 53 54
25 28 39 51 58 44 25 24 21 20 35 37 41 29 30 36 37 30 36 39 45 47
23 32 34 42 52 56 36 21 25 30 33 31 31 28 25 33 36 32 37 35 37 42
26 29 32 36 40 50 51 39 31 29 27 26 29 30 24 25 32 28 33 36 39 39
Wind_Direction_850mb
337 337 339 345 350 350 350 351 347 340 337 336 332 330 327 323 322 319 313 308 302 299
341 347 355 359 358 2 1 355 349 345 340 339 339 337 335 332 329 325 321 318 313 307
359 7 9 6 10 6 1 359 356 352 350 348 346 347 346 340 336 329 328 327 325 322
24 24 22 18 11 6 7 4 2 2 359 357 356 355 353 351 346 339 334 331 332 337
26 20 17 16 14 15 11 8 9 9 7 7 7 7 3 357 358 354 349 343 337 339
24 19 16 11 9 8 11 17 15 13 13 13 18 19 17 19 17 11 5 -0 346 349
23 12 4 358 356 351 355 13 7 10 14 14 21 23 26 29 32 32 28 22 11 356
17 5 357 358 358 352 347 353 358 3 13 19 23 23 24 27 29 33 34 36 37 33
12 4 1 353 351 350 340 353 360 7 11 17 17 18 22 24 30 35 35 36 36 42
18 18 12 5 353 354 355 345 352 3 9 2 9 14 12 19 24 26 29 34 36 38
16 13 15 12 9 7 3 355 360 12 356 353 352 0 8 9 11 23 28 27 29 26
15 11 14 17 18 13 357 8 16 346 335 346 351 345 355 359 359 12 16 18 20 18
13 22 18 14 20 22 18 11 356 346 337 350 4 356 347 0 357 5 5 4 5 8
21 21 16 9 14 24 31 27 13 6 19 25 19 18 11 359 1 5 1 1 1 1